Weather History for KSLC - October, 2011

Change the Weather History Date:

Saturday, October 22, 2011

  Actual Average Record
Temperature  
Mean Temperature 55 °F 51 °F  
Max Temperature 67 °F 62 °F 80 °F (1915)
Min Temperature 42 °F 39 °F 24 °F (1966)
Degree Days  
Heating Degree Days 10 14  
Month to date heating degree days 190 232  
Since 1 July heating degree days 190 321  
Cooling Degree Days 0 0  
Month to date cooling degree days 32 5  
Year to date cooling degree days 1162 1158  
Growing Degree Days 4 (Base 50)    
Moisture  
Dew Point 36 °F    
Average Humidity 53    
Maximum Humidity 76    
Minimum Humidity 29    
Precipitation  
Precipitation 0.00 in 0.05 in 0.41 in (1985)
Month to date precipitation 1.59 1.06  
Year to date precipitation 17.49 12.78  
Snow  
Snow 0.00 in 0.10 in 0.50 in (1995)
Month to date snowfall T 0.7  
Since 1 July snowfall T 0.7  
Snow Depth 0.00 in    
Sea Level Pressure  
Sea Level Pressure 30.22 in    
Wind  
Wind Speed 6 mph (SSE)    
Max Wind Speed 9 mph    
Max Gust Speed 13 mph    
Visibility 10 miles    
Events      
T = Trace of Precipitation, MM = Missing Value Source: NWS Daily Summary

Daily Weather History Graph

Daily Weather History Graph

Search for Another Location

Airport or City:

Trip Planner

Search our weather history database for the weather conditions in past years. The results will help you decide how hot, cold, wet, or windy it might be!

Date:

Astronomy

Oct. 22, 2011 Rise Set
Actual Time 7:46 AM MDT 6:37 PM MDT
Civil Twilight 7:18 AM MDT 7:05 PM MDT
Nautical Twilight 6:46 AM MDT 7:37 PM MDT
Astronomical Twilight 6:15 AM MDT 8:08 PM MDT
Moon 2:46 AM MDT (10/22) 3:58 PM MDT (10/22)
Length of Visible Light 11h 46m
Length of Day
10h 50m
Waning Crescent, 23% of the Moon is Illuminated
Oct 22
Waning Crescent
Oct 26
New
Nov 2
First Quarter
Nov 10
Full
Nov 18
Last Quarter

Hourly Weather History & Observations

Time (MDT) Temp. Windchill Dew Point Humidity Pressure Visibility Wind Dir Wind Speed Gust Speed Precip Events Conditions
12:53 AM 48.2 °F - 39.2 °F 71% 30.24 in 10.0 mi Calm Calm - N/A   Partly Cloudy
1:53 AM 48.0 °F - 37.0 °F 66% 30.17 in 10.0 mi South 3.5 mph - N/A   Partly Cloudy
2:53 AM 45.0 °F 41.2 °F 36.0 °F 71% 30.18 in 10.0 mi SE 6.9 mph - N/A   Clear
3:53 AM 45.0 °F 43.5 °F 35.1 °F 68% 30.18 in 10.0 mi SSE 3.5 mph - N/A   Clear
4:53 AM 43.0 °F 39.5 °F 35.1 °F 74% 30.19 in 10.0 mi SSE 5.8 mph - N/A   Clear
5:53 AM 45.0 °F 43.5 °F 35.1 °F 68% 30.19 in 10.0 mi SSE 3.5 mph - N/A   Clear
6:53 AM 43.0 °F 38.2 °F 36.0 °F 76% 30.22 in 10.0 mi SSE 8.1 mph - N/A   Partly Cloudy
7:53 AM 44.1 °F 39.5 °F 35.1 °F 71% 30.24 in 10.0 mi SE 8.1 mph - N/A   Mostly Cloudy
8:53 AM 48.0 °F - 37.9 °F 68% 30.26 in 10.0 mi SSE 6.9 mph - N/A   Mostly Cloudy
9:53 AM 53.1 °F - 37.9 °F 57% 30.26 in 10.0 mi South 5.8 mph - N/A   Partly Cloudy
10:53 AM 57.9 °F - 37.9 °F 47% 30.26 in 10.0 mi South 4.6 mph - N/A   Mostly Cloudy
11:53 AM 62.1 °F - 37.0 °F 39% 30.26 in 10.0 mi Calm Calm - N/A   Mostly Cloudy
12:53 PM 64.9 °F - 39.0 °F 39% 30.26 in 10.0 mi NNW 6.9 mph - N/A   Mostly Cloudy
1:53 PM 64.9 °F - 37.9 °F 37% 30.24 in 10.0 mi NW 4.6 mph - N/A   Scattered Clouds
2:53 PM 66.0 °F - 36.0 °F 33% 30.23 in 10.0 mi WNW 5.8 mph - N/A   Scattered Clouds
3:53 PM 66.0 °F - 34.0 °F 30% 30.22 in 10.0 mi North 4.6 mph - N/A   Scattered Clouds
4:53 PM 66.0 °F - 34.0 °F 30% 30.22 in 10.0 mi North 3.5 mph - N/A   Mostly Cloudy
5:53 PM 64.0 °F - 35.1 °F 34% 30.22 in 10.0 mi North 8.1 mph - N/A   Scattered Clouds
6:53 PM 59.0 °F - 33.1 °F 38% 30.22 in 10.0 mi NE 4.6 mph - N/A   Partly Cloudy
7:53 PM 57.9 °F - 30.9 °F 36% 30.23 in 10.0 mi West 3.5 mph - N/A   Partly Cloudy
8:53 PM 54.0 °F - 37.0 °F 53% 30.23 in 10.0 mi Calm Calm - N/A   Clear
9:53 PM 52.0 °F - 33.1 °F 49% 30.22 in 10.0 mi SSE 4.6 mph - N/A   Clear
10:53 PM 48.9 °F - 33.1 °F 54% 30.22 in 10.0 mi SSE 8.1 mph - N/A   Clear
11:53 PM 48.0 °F - 36.0 °F 63% 30.22 in 10.0 mi SE 8.1 mph - N/A   Clear